San Angelo, TX

6:44 AM CDT on March 23, 2017 (GMT -0500)
San Angelo Regional-Mathis

Weather History for KSJT - December, 2012

Change the Weather History Date:

Wednesday, December 26, 2012

  Actual Average Record
Temperature  
Mean Temperature 31 °F 46 °F  
Max Temperature 39 °F 59 °F 83 °F (2005)
Min Temperature 23 °F 33 °F 16 °F (1983)
Degree Days  
Heating Degree Days 34 19  
Month to date heating degree days 301 468  
Since 1 July heating degree days 606 868  
Cooling Degree Days 0 0  
Month to date cooling degree days 17 0  
Year to date cooling degree days 3243 2502  
Moisture  
Dew Point 16 °F    
Average Humidity 53    
Maximum Humidity 68    
Minimum Humidity 37    
Precipitation  
Precipitation 0.00 in 0.03 in 0.41 in (2015)
Month to date precipitation 0.03 0.69  
Year to date precipitation 21.81 21.09  
Snow  
Snow 0.00 in 0.00 in 1.50 in (1939)
Month to date snowfall 0.0 0.2  
Since 1 July snowfall T 0.5  
Snow Depth 0.00 in    
Sea Level Pressure  
Sea Level Pressure 30.19 in    
Wind  
Wind Speed 6 mph (NNE)    
Max Wind Speed 18 mph    
Max Gust Speed 24 mph    
Visibility 10 miles    
Events      
T = Trace of Precipitation, MM = Missing Value Source: NWS Daily Summary

Daily Weather History Graph

Daily Weather History Graph

Search for Another Location

Airport or City:

Trip Planner

Search our weather history database for the weather conditions in past years. The results will help you decide how hot, cold, wet, or windy it might be!

Date:

Astronomy

Dec. 26, 2012 Rise Set
Actual Time 7:39 AM CST 5:46 PM CST
Civil Twilight 7:12 AM CST 6:13 PM CST
Nautical Twilight 6:42 AM CST 6:43 PM CST
Astronomical Twilight 6:12 AM CST 7:13 PM CST
Moon 4:39 PM CST (12/26) 6:06 AM CST (12/26)
Length of Visible Light 11h 00m
Length of Day
10h 07m
Waxing Gibbous, 97% of the Moon is Illuminated
Dec 26
Waxing Gibbous
Dec 28
Full
Jan 4
Last Quarter
Jan 11
New
Jan 18
First Quarter

Hourly Weather History & Observations

Time (CST) Temp. Windchill Dew Point Humidity Pressure Visibility Wind Dir Wind Speed Gust Speed Precip Events Conditions
12:33 AM 30.2 °F 18.5 °F 15.8 °F 55% 30.22 in 10.0 mi NNW 17.3 mph - N/A   Overcast
12:51 AM 28.9 °F 17.3 °F 15.1 °F 56% 30.27 in 10.0 mi NNW 16.1 mph - N/A   Scattered Clouds
1:51 AM 27.0 °F 16.7 °F 15.1 °F 61% 30.28 in 10.0 mi North 11.5 mph - N/A   Clear
2:51 AM 26.1 °F 17.6 °F 15.1 °F 63% 30.29 in 10.0 mi NNW 8.1 mph - N/A   Clear
4:51 AM 24.1 °F 16.0 °F 15.1 °F 69% 30.29 in 10.0 mi NW 6.9 mph - N/A   Clear
5:51 AM 25.0 °F 13.6 °F 15.1 °F 66% 30.27 in 10.0 mi North 12.7 mph - N/A   Clear
6:51 AM 25.0 °F 14.8 °F 15.1 °F 66% 30.28 in 10.0 mi North 10.4 mph - N/A   Clear
7:51 AM 25.0 °F 18.1 °F 15.1 °F 66% 30.27 in 10.0 mi NNW 5.8 mph - N/A   Clear
8:51 AM 26.1 °F - 15.1 °F 63% 30.30 in 10.0 mi Calm Calm - N/A   Clear
10:51 AM 30.0 °F - 16.0 °F 56% 30.31 in 10.0 mi Calm Calm - N/A   Clear
11:51 AM 32.0 °F 26.4 °F 15.1 °F 50% 30.28 in 10.0 mi NNE 5.8 mph - N/A   Clear
12:51 PM 34.0 °F - 15.1 °F 46% 30.22 in 10.0 mi Calm Calm - N/A   Clear
1:51 PM 36.0 °F - 15.1 °F 43% 30.18 in 10.0 mi Calm Calm - N/A   Clear
2:51 PM 39.0 °F 35.7 °F 16.0 °F 39% 30.15 in 10.0 mi Variable 4.6 mph - N/A   Clear
3:51 PM 37.9 °F 35.5 °F 17.1 °F 43% 30.12 in 10.0 mi ESE 3.5 mph - N/A   Clear
4:51 PM 37.9 °F 32.1 °F 17.1 °F 43% 30.11 in 10.0 mi East 8.1 mph - N/A   Clear
5:51 PM 35.1 °F 30.1 °F 17.1 °F 48% 30.11 in 10.0 mi East 5.8 mph - N/A   Clear
6:51 PM 30.9 °F 25.2 °F 17.1 °F 57% 30.12 in 10.0 mi ENE 5.8 mph - N/A   Clear
7:51 PM 30.0 °F 23.2 °F 16.0 °F 56% 30.09 in 10.0 mi East 6.9 mph - N/A   Clear
8:51 PM 28.9 °F 23.9 °F 17.1 °F 61% 30.09 in 10.0 mi East 4.6 mph - N/A   Clear
9:51 PM 27.0 °F - 16.0 °F 63% 30.08 in 10.0 mi Calm Calm - N/A   Clear
10:51 PM 26.1 °F 20.5 °F 16.0 °F 66% 30.08 in 10.0 mi ENE 4.6 mph - N/A   Clear
11:51 PM 25.0 °F 17.1 °F 15.1 °F 66% 30.06 in 10.0 mi East 6.9 mph - N/A   Clear